Total_Precipitation_Accumulation
0.61 0.59 0.57 0.55 0.53 0.53 0.62 0.73 1.13 1.45 1.89 2.24 2.15 2.27 2.55 2.59 2.43 2.27 2.30 2.30 2.23 2.26 2.18 2.16 2.12 1.97 1.83 1.71 1.60 1.52 1.50 1.48 1.55 1.66 1.65 1.57 1.50 1.46 1.41 1.32 1.22 1.21 1.20 1.13
0.58 0.51 0.55 0.59 0.63 0.59 0.61 0.77 1.13 1.50 2.01 2.11 2.11 2.21 2.34 2.49 2.42 2.30 2.31 2.37 2.41 2.51 2.45 2.39 2.35 2.16 2.00 1.86 1.66 1.53 1.51 1.49 1.51 1.58 1.57 1.51 1.48 1.42 1.37 1.32 1.29 1.25 1.20 1.14
0.73 0.52 0.78 1.15 0.98 0.86 0.85 0.96 1.25 1.65 1.86 1.80 1.92 2.15 2.28 2.37 2.46 2.43 2.52 2.65 2.71 2.66 2.63 2.53 2.44 2.42 2.32 2.08 1.85 1.76 1.65 1.54 1.52 1.49 1.43 1.40 1.29 1.26 1.32 1.33 1.30 1.22 1.17 1.16
0.89 0.96 1.54 1.44 0.95 0.91 1.07 1.23 1.32 1.42 1.47 1.64 1.85 2.02 2.12 2.34 2.55 2.58 2.57 2.53 2.62 2.58 2.59 2.53 2.42 2.32 2.26 2.12 1.96 1.76 1.64 1.51 1.42 1.41 1.38 1.38 1.34 1.31 1.34 1.35 1.28 1.28 1.25 1.21
1.10 1.45 1.57 1.46 1.03 1.04 1.27 1.66 1.48 1.50 1.48 1.60 1.70 1.88 2.26 2.33 2.41 2.61 2.49 2.39 2.48 2.57 2.60 2.57 2.46 2.24 2.10 2.01 1.93 1.84 1.65 1.43 1.31 1.32 1.29 1.29 1.32 1.32 1.31 1.31 1.25 1.21 1.18 1.20
1.35 1.73 1.95 1.76 1.04 0.87 1.32 2.35 1.78 1.65 1.65 1.62 1.74 2.27 2.41 2.15 2.07 2.17 2.24 2.34 2.47 2.58 2.63 2.60 2.53 2.17 2.00 1.87 1.72 1.57 1.38 1.27 1.24 1.25 1.18 1.16 1.23 1.27 1.27 1.28 1.23 1.18 1.15 1.19
1.51 1.96 2.06 1.30 0.83 0.95 1.92 2.42 1.85 1.74 1.69 1.72 1.95 2.14 1.93 1.77 1.85 2.02 2.19 2.32 2.42 2.45 2.47 2.41 2.36 2.09 1.95 1.76 1.59 1.33 1.14 1.10 1.16 1.17 1.11 1.06 1.10 1.16 1.22 1.18 1.18 1.18 1.10 1.09
1.71 2.15 2.28 1.14 0.93 1.35 1.71 1.42 1.36 1.39 1.38 1.43 1.54 1.59 1.61 1.66 1.73 1.80 1.93 2.13 2.24 2.28 2.26 2.15 2.04 1.89 1.78 1.62 1.36 1.16 1.05 1.03 1.10 1.16 0.99 0.90 0.99 1.00 1.05 1.18 1.14 1.12 1.13 1.03
1.93 2.28 1.89 1.24 1.19 1.19 1.23 1.23 1.17 1.23 1.21 1.23 1.31 1.38 1.48 1.64 1.73 1.75 1.73 1.89 1.96 1.88 1.77 1.77 1.70 1.60 1.50 1.36 1.18 1.05 1.03 1.07 1.08 1.08 1.02 0.98 1.02 1.00 1.02 1.10 1.11 1.03 1.02 0.97
1.70 1.81 1.50 1.21 1.11 1.09 0.99 0.97 1.01 1.14 1.14 1.09 1.08 1.05 1.16 1.30 1.44 1.52 1.51 1.55 1.62 1.61 1.54 1.50 1.43 1.34 1.24 1.10 1.06 1.07 1.07 1.08 1.11 1.09 1.01 0.98 1.02 0.95 0.94 0.93 0.96 0.92 0.90 0.90
1.80 1.77 1.54 1.34 1.15 1.04 1.00 0.97 1.01 1.06 1.00 0.92 0.86 0.86 0.90 1.05 1.13 1.19 1.24 1.25 1.31 1.40 1.41 1.28 1.18 1.13 1.08 0.98 0.98 1.07 1.11 1.06 1.05 0.97 0.95 0.96 0.93 0.81 0.75 0.71 0.74 0.82 0.82 0.80
1.99 1.69 1.60 1.45 1.12 0.92 0.94 0.95 0.91 0.88 0.82 0.81 0.77 0.75 0.79 0.96 1.06 1.08 1.07 1.11 1.21 1.28 1.24 1.18 1.10 1.04 0.98 0.88 0.89 1.01 1.06 1.02 0.94 0.88 0.86 0.83 0.86 0.80 0.71 0.65 0.66 0.66 0.70 0.66
1.34 1.16 1.12 1.06 0.96 0.92 0.84 0.79 0.81 0.77 0.69 0.67 0.66 0.65 0.75 0.88 0.91 0.95 0.99 1.03 1.16 1.19 1.14 1.04 1.00 1.01 1.00 0.92 0.85 0.88 0.92 0.89 0.85 0.81 0.79 0.76 0.78 0.83 0.81 0.65 0.58 0.57 0.62 0.62
0.95 1.00 1.07 0.92 0.80 0.74 0.68 0.64 0.65 0.64 0.62 0.63 0.62 0.59 0.63 0.69 0.74 0.83 0.92 0.97 1.01 0.97 1.01 1.04 0.95 0.90 0.91 0.87 0.80 0.74 0.77 0.74 0.72 0.75 0.76 0.74 0.70 0.68 0.70 0.71 0.68 0.61 0.57 0.59
0.82 0.81 0.88 0.76 0.62 0.61 0.61 0.57 0.62 0.67 0.65 0.64 0.60 0.53 0.51 0.61 0.69 0.75 0.76 0.80 0.84 0.83 0.82 0.88 0.94 0.89 0.82 0.79 0.77 0.72 0.72 0.72 0.65 0.63 0.67 0.67 0.66 0.66 0.65 0.67 0.66 0.63 0.57 0.54
0.72 0.65 0.62 0.60 0.54 0.53 0.58 0.62 0.64 0.66 0.66 0.66 0.63 0.59 0.58 0.63 0.70 0.74 0.70 0.71 0.75 0.72 0.67 0.72 0.80 0.78 0.72 0.68 0.67 0.68 0.66 0.68 0.63 0.58 0.59 0.63 0.64 0.64 0.63 0.62 0.60 0.58 0.56 0.52
0.77 0.75 0.68 0.64 0.60 0.58 0.60 0.64 0.61 0.58 0.61 0.67 0.64 0.57 0.55 0.61 0.71 0.73 0.74 0.68 0.62 0.58 0.55 0.57 0.66 0.69 0.70 0.64 0.58 0.54 0.57 0.60 0.63 0.58 0.53 0.53 0.53 0.55 0.53 0.54 0.58 0.60 0.55 0.54
0.67 0.66 0.64 0.68 0.65 0.64 0.63 0.60 0.57 0.56 0.56 0.61 0.63 0.61 0.61 0.67 0.70 0.66 0.65 0.57 0.54 0.54 0.50 0.46 0.53 0.63 0.68 0.68 0.58 0.51 0.49 0.51 0.52 0.52 0.52 0.48 0.47 0.50 0.52 0.50 0.48 0.52 0.56 0.62
0.54 0.54 0.58 0.64 0.66 0.69 0.67 0.60 0.55 0.49 0.49 0.53 0.59 0.65 0.69 0.69 0.67 0.61 0.58 0.58 0.60 0.65 0.57 0.49 0.55 0.59 0.61 0.60 0.61 0.58 0.55 0.53 0.52 0.52 0.50 0.48 0.45 0.50 0.55 0.53 0.50 0.49 0.51 0.57
0.54 0.55 0.57 0.60 0.56 0.56 0.56 0.52 0.49 0.46 0.47 0.52 0.53 0.54 0.64 0.64 0.62 0.61 0.60 0.62 0.57 0.55 0.52 0.50 0.50 0.55 0.59 0.57 0.61 0.57 0.57 0.56 0.53 0.54 0.56 0.53 0.49 0.49 0.51 0.52 0.53 0.54 0.56 0.59
0.56 0.57 0.56 0.53 0.50 0.45 0.44 0.44 0.46 0.47 0.50 0.53 0.47 0.45 0.52 0.56 0.54 0.58 0.62 0.59 0.51 0.49 0.54 0.55 0.48 0.48 0.52 0.57 0.63 0.60 0.58 0.57 0.57 0.53 0.52 0.53 0.50 0.51 0.52 0.51 0.52 0.53 0.55 0.57
0.63 0.63 0.55 0.55 0.54 0.48 0.44 0.46 0.44 0.43 0.44 0.46 0.43 0.45 0.50 0.53 0.52 0.57 0.60 0.55 0.45 0.44 0.46 0.49 0.47 0.47 0.48 0.52 0.53 0.53 0.53 0.54 0.54 0.51 0.50 0.52 0.53 0.53 0.51 0.51 0.52 0.51 0.50 0.51
0.69 0.67 0.59 0.62 0.59 0.56 0.54 0.46 0.40 0.41 0.45 0.45 0.44 0.46 0.48 0.52 0.52 0.56 0.56 0.48 0.43 0.44 0.42 0.43 0.46 0.44 0.41 0.39 0.42 0.47 0.47 0.49 0.50 0.49 0.48 0.50 0.51 0.51 0.47 0.48 0.50 0.49 0.47 0.49
0.74 0.75 0.65 0.62 0.57 0.62 0.61 0.49 0.43 0.46 0.52 0.48 0.45 0.44 0.43 0.44 0.48 0.47 0.46 0.49 0.48 0.46 0.40 0.42 0.43 0.41 0.40 0.34 0.37 0.43 0.45 0.45 0.44 0.43 0.43 0.44 0.46 0.47 0.45 0.44 0.47 0.47 0.44 0.45
0.79 0.80 0.72 0.68 0.69 0.70 0.66 0.59 0.55 0.52 0.52 0.49 0.45 0.44 0.44 0.46 0.49 0.49 0.45 0.42 0.45 0.42 0.37 0.39 0.41 0.41 0.37 0.36 0.38 0.39 0.38 0.43 0.44 0.40 0.38 0.39 0.41 0.42 0.43 0.44 0.43 0.44 0.44 0.45
0.83 0.84 0.78 0.74 0.72 0.70 0.67 0.68 0.70 0.66 0.62 0.57 0.50 0.48 0.45 0.45 0.46 0.49 0.45 0.41 0.40 0.38 0.35 0.37 0.38 0.40 0.35 0.34 0.38 0.38 0.35 0.37 0.40 0.40 0.39 0.41 0.43 0.43 0.43 0.42 0.42 0.43 0.43 0.45
0.81 0.81 0.78 0.68 0.63 0.63 0.72 0.77 0.76 0.74 0.71 0.67 0.61 0.55 0.51 0.50 0.45 0.47 0.47 0.44 0.42 0.39 0.38 0.40 0.41 0.40 0.38 0.37 0.39 0.41 0.35 0.33 0.35 0.35 0.36 0.39 0.42 0.44 0.44 0.44 0.42 0.41 0.40 0.42